Regional Weather Roundup
Issued by NWS

Home | Current Version | Previous Version | Text Only | Print | Product List | Glossary Off
Versions: 1 2 3 4 5 6 7 8 9 10 11 12 13 14 15 16 17 18 19 20 21 22 23 24 25 26 27 28 29 30 31 32 33 34 35 36 37 38 39 40 41 42 43 44 45 46 47 48 49 50

000
ASUS45 KABQ 250310
RWRNM
WEATHER ROUNDUP FOR NEW MEXICO
NATIONAL WEATHER SERVICE ALBUQUERQUE NM
800 PM MST SAT JAN 24 2015

NOTE: "FAIR" MEANS FEW OR NO CLOUDS BELOW 12,000 FEET AGL WITH NO
       SIGNIFICANT WEATHER OR OBSTRUCTIONS TO VISION.

      THIS PRODUCT IS RELEASED AS TWO VERSIONS.  ONE VERSION NEAR
      THE TOP OF THE HOUR CONTAINING PRELIMINARY DATA FROM ALBUQUERQUE
      AND OTHER STATIONS.  A FINAL VERSION WITH ADDITIONAL DATA IS
      ISSUED ABOUT 10 MINUTES AFTER THE HOUR.

NMZ501-503-504-510>518-250400-
NORTHWEST PLATEAU/NORTHCENTRAL MOUNTAINS

CITY           SKY/WX    TMP DP  RH WIND       PRES   REMARKS
FARMINGTON     CLEAR     32  13  45 W5        30.26F WCI  27
LOS ALAMOS     PTCLDY    35  23  61 CALM      30.23S
SANTA FE       PTCLDY    34  21  59 N10       30.19S WCI  26
TAOS           CLOUDY    27  18  69 NW8       30.26R WCI  18
ANGEL FIRE     FAIR      31  15  50 W8        30.23S WCI  24

$$
NMZ402-403-502-505>509-250400-
WESTCENTRAL MOUNTAINS/SOUTHWEST MOUNTAINS

CITY           SKY/WX    TMP DP  RH WIND       PRES   REMARKS
GALLUP         CLEAR     32  20  61 CALM      30.29S
GRANTS         CLEAR     32  21  63 NW17      30.29S WCI  21
SILVER CITY    MOCLDY    36  18  48 NE6       30.23R WCI  31

$$
NMZ407-409-411-412-250400-
SOUTHERN DESERTS

CITY           SKY/WX    TMP DP  RH WIND       PRES   REMARKS
LORDSBURG      FAIR      41  19  42 SE13      30.18S
DEMING         CLOUDY    38  23  55 SW6       30.19F WCI  33
LAS CRUCES     MOCLDY    35  28  74 W3        30.20S
HOLLOMAN AFB   MOCLDY    33  26  74 E6        30.19R WCI  28
ALAMOGORDO     MOCLDY    32  25  74 E6        30.21R WCI  26
T OR C         PTCLDY    36  19  50 W6        30.20R WCI  31

$$
NMZ519>523-250400-
CENTRAL VALLEYS/CENTRAL HIGHLANDS

CITY           SKY/WX    TMP DP  RH WIND       PRES   REMARKS
ALBUQUERQUE    PTCLDY    42  20  41 N8        30.23S
DOUBLE EAGLE   CLEAR     36  19  51 NW14      30.24R WCI  27
MORIARTY ARPT  FAIR      36  21  53 NW17G24   30.18F WCI  26
CLINES CORNERS CLEAR     33  20  58 NW25G31   30.13S WCI  20
BELEN          FAIR      31  22  71 N6        30.23S WCI  25
SOCORRO        FAIR      34  27  74 CALM      30.22R

$$
NMZ524>526-539-540-250400-
SOUTHCENTRAL MOUNTAINS

CITY           SKY/WX    TMP DP  RH WIND       PRES   REMARKS
RUIDOSO        PTCLDY    39  12  33 W15G21    30.18F WCI  31

$$
NMZ527>531-250400-
NORTHEAST HIGHLANDS/NORTHEAST PLAINS

CITY           SKY/WX    TMP DP  RH WIND       PRES   REMARKS
LAS VEGAS      MOCLDY    42  16  34 N16       30.10R
RATON          CLOUDY    36  24  62 NE8       30.08R WCI  30
CLAYTON        CLOUDY    44  24  45 NW17      30.02R

$$
NMZ532>537-250400-
EASTCENTRAL PLAINS

CITY           SKY/WX    TMP DP  RH WIND       PRES   REMARKS
TUCUMCARI      MOCLDY    34  28  79 W9        30.01R WCI  27
CANNON AFB     CLEAR     37  29  70 W14       30.03R WCI  29
CLOVIS AIRPORT CLEAR     39  28  65 W20       30.03R WCI  30

$$
NMZ028-029-538-250400-
SOUTHEAST PLAINS

CITY           SKY/WX    TMP DP  RH WIND       PRES   REMARKS
ROSWELL        PTCLDY    33  31  92 CALM      30.05F
ARTESIA        MOCLDY    37  30  75 W6        30.09R WCI  33
CARLSBAD       PTCLDY    42  30  62 SW7       30.06F
HOBBS          PTCLDY    41  32  70 SW7       30.07R


$$



USA.gov is the U.S. government's official web portal to all federal, state and local government web resources and services.